Time,TemperatureF,DewpointF,PressureIn,WindDirection,WindDirectionDegrees,WindSpeedMPH,WindSpeedGustMPH,Humidity,HourlyPrecipIn,Conditions,Clouds,dailyrainin,SoftwareType,DateUTC
2013-06-24 00:12:00,70.8,68.0,30.13,South,188,0.0,0.0,89,0.00,,,0.00,weatherlink.com 1.10,2013-06-24 04:12:00,
2013-06-24 00:27:00,70.4,67.0,30.13,South,188,0.0,0.0,89,0.00,,,0.00,weatherlink.com 1.10,2013-06-24 04:27:00,
2013-06-24 00:42:00,70.2,67.0,30.13,South,188,0.0,0.0,90,0.00,,,0.00,weatherlink.com 1.10,2013-06-24 04:42:00,
2013-06-24 00:57:00,69.9,67.0,30.12,South,188,0.0,0.0,90,0.00,,,0.00,weatherlink.com 1.10,2013-06-24 04:57:00,
2013-06-24 01:12:00,69.6,67.0,30.13,South,188,0.0,0.0,91,0.00,,,0.00,weatherlink.com 1.10,2013-06-24 05:12:00,
2013-06-24 01:27:00,69.4,67.0,30.13,South,188,0.0,0.0,91,0.00,,,0.00,weatherlink.com 1.10,2013-06-24 05:27:00,
2013-06-24 01:42:00,69.1,67.0,30.12,South,188,0.0,0.0,92,0.00,,,0.00,weatherlink.com 1.10,2013-06-24 05:42:00,
2013-06-24 02:12:00,68.7,67.0,30.12,South,188,0.0,0.0,93,0.00,,,0.00,weatherlink.com 1.10,2013-06-24 06:12:00,
2013-06-24 02:27:00,68.6,67.0,30.11,South,188,0.0,0.0,94,0.00,,,0.00,weatherlink.com 1.10,2013-06-24 06:27:00,
2013-06-24 02:42:00,68.4,67.0,30.11,South,188,0.0,0.0,94,0.00,,,0.00,weatherlink.com 1.10,2013-06-24 06:42:00,
2013-06-24 02:57:00,68.3,67.0,30.11,South,188,0.0,0.0,94,0.00,,,0.00,weatherlink.com 1.10,2013-06-24 06:57:00,
2013-06-24 03:12:00,68.1,66.0,30.11,South,188,0.0,0.0,94,0.00,,,0.00,weatherlink.com 1.10,2013-06-24 07:12:00,
2013-06-24 03:27:00,68.0,67.0,30.11,South,188,0.0,1.0,95,0.00,,,0.00,weatherlink.com 1.10,2013-06-24 07:27:00,
2013-06-24 03:42:00,68.0,67.0,30.10,South,188,0.0,2.0,95,0.00,,,0.00,weatherlink.com 1.10,2013-06-24 07:42:00,
2013-06-24 03:57:00,68.2,67.0,30.11,South,188,0.0,0.0,95,0.00,,,0.00,weatherlink.com 1.10,2013-06-24 07:57:00,
2013-06-24 04:27:00,67.8,66.0,30.11,South,188,0.0,0.0,94,0.00,,,0.00,weatherlink.com 1.10,2013-06-24 08:27:00,
2013-06-24 04:42:00,67.7,66.0,30.11,South,188,0.0,0.0,95,0.00,,,0.00,weatherlink.com 1.10,2013-06-24 08:42:00,
2013-06-24 05:12:00,67.5,66.0,30.12,South,188,0.0,0.0,96,0.00,,,0.00,weatherlink.com 1.10,2013-06-24 09:12:00,
2013-06-24 05:27:00,67.3,66.0,30.12,South,188,0.0,0.0,96,0.00,,,0.00,weatherlink.com 1.10,2013-06-24 09:27:00,
2013-06-24 06:12:00,67.1,66.0,30.13,South,188,0.0,0.0,97,0.00,,,0.00,weatherlink.com 1.10,2013-06-24 10:12:00,
2013-06-24 06:27:00,67.4,67.0,30.12,South,188,0.0,1.0,97,0.00,,,0.00,weatherlink.com 1.10,2013-06-24 10:27:00,
2013-06-24 06:42:00,67.6,67.0,30.13,SSW,199,0.0,3.0,97,0.00,,,0.00,weatherlink.com 1.10,2013-06-24 10:42:00,
2013-06-24 06:57:00,67.6,67.0,30.14,SSW,199,0.0,0.0,97,0.00,,,0.00,weatherlink.com 1.10,2013-06-24 10:57:00,
2013-06-24 07:57:00,68.4,68.0,30.16,SSW,199,0.0,0.0,97,0.00,,,0.00,weatherlink.com 1.10,2013-06-24 11:57:00,
2013-06-24 08:12:00,69.2,69.0,30.16,SSW,199,0.0,0.0,98,0.00,,,0.00,weatherlink.com 1.10,2013-06-24 12:12:00,
2013-06-24 08:27:00,70.2,69.0,30.17,SSW,198,0.0,1.0,97,0.00,,,0.00,weatherlink.com 1.10,2013-06-24 12:27:00,
2013-06-24 08:42:00,71.1,70.0,30.17,SSW,195,2.0,4.0,95,0.00,,,0.00,weatherlink.com 1.10,2013-06-24 12:42:00,
2013-06-24 09:43:00,73.4,70.0,30.19,SSW,200,0.0,1.0,89,0.00,,,0.00,weatherlink.com 1.10,2013-06-24 13:43:00,
2013-06-24 09:58:00,73.6,70.0,30.19,South,188,0.0,1.0,88,0.00,,,0.00,weatherlink.com 1.10,2013-06-24 13:58:00,
2013-06-24 10:28:00,74.2,70.0,30.19,SSW,211,0.0,4.0,87,0.00,,,0.00,weatherlink.com 1.10,2013-06-24 14:28:00,
2013-06-24 10:43:00,74.5,70.0,30.19,SSW,206,2.0,2.0,86,0.00,,,0.00,weatherlink.com 1.10,2013-06-24 14:43:00,
2013-06-24 10:58:00,74.9,71.0,30.19,South,188,0.0,2.0,86,0.00,,,0.00,weatherlink.com 1.10,2013-06-24 14:58:00,
2013-06-24 11:13:00,75.6,71.0,30.19,SSW,213,0.0,3.0,85,0.00,,,0.00,weatherlink.com 1.10,2013-06-24 15:13:00,
2013-06-24 11:28:00,77.0,71.0,30.19,ESE,117,0.0,4.0,81,0.00,,,0.00,weatherlink.com 1.10,2013-06-24 15:28:00,
2013-06-24 11:58:00,78.8,71.0,30.18,South,186,1.0,6.0,76,0.00,,,0.00,weatherlink.com 1.10,2013-06-24 15:58:00,
2013-06-24 12:13:00,79.7,71.0,30.18,SSW,197,1.0,4.0,75,0.00,,,0.00,weatherlink.com 1.10,2013-06-24 16:13:00,
2013-06-24 12:43:00,82.6,73.0,30.17,NNW,334,0.0,4.0,72,0.00,,,0.00,weatherlink.com 1.10,2013-06-24 16:43:00,
2013-06-24 13:13:00,83.1,71.0,30.16,SE,127,0.0,3.0,68,0.00,,,0.00,weatherlink.com 1.10,2013-06-24 17:13:00,
2013-06-24 13:28:00,84.5,71.0,30.15,ESE,107,0.0,1.0,65,0.00,,,0.00,weatherlink.com 1.10,2013-06-24 17:28:00,
2013-06-24 13:43:00,86.3,72.0,30.14,NE,34,0.0,5.0,63,0.00,,,0.00,weatherlink.com 1.10,2013-06-24 17:43:00,
2013-06-24 13:59:00,86.5,72.0,30.14,ESE,103,0.0,4.0,62,0.00,,,0.00,weatherlink.com 1.10,2013-06-24 17:59:00,
2013-06-24 14:14:00,87.2,71.0,30.13,WSW,246,0.0,2.0,59,0.00,,,0.00,weatherlink.com 1.10,2013-06-24 18:14:00,
2013-06-24 14:29:00,86.8,71.0,30.12,ENE,68,0.0,3.0,60,0.00,,,0.00,weatherlink.com 1.10,2013-06-24 18:29:00,
2013-06-24 14:44:00,83.8,73.0,30.12,NE,38,0.0,2.0,69,0.00,,,0.00,weatherlink.com 1.10,2013-06-24 18:44:00,
2013-06-24 14:59:00,80.8,72.0,30.11,NE,36,0.0,0.0,75,0.00,,,0.00,weatherlink.com 1.10,2013-06-24 18:59:00,
2013-06-24 15:14:00,80.3,73.0,30.11,NE,36,0.0,0.0,79,0.00,,,0.00,weatherlink.com 1.10,2013-06-24 19:14:00,
2013-06-24 15:29:00,80.8,71.0,30.11,NE,36,0.0,0.0,72,0.00,,,0.00,weatherlink.com 1.10,2013-06-24 19:29:00,
2013-06-24 15:44:00,81.7,72.0,30.11,NE,36,0.0,0.0,72,0.00,,,0.00,weatherlink.com 1.10,2013-06-24 19:44:00,
2013-06-24 15:59:00,80.8,73.0,30.11,NE,36,0.0,0.0,76,0.00,,,0.00,weatherlink.com 1.10,2013-06-24 19:59:00,
2013-06-24 16:14:00,80.0,72.0,30.10,NE,36,0.0,0.0,77,0.00,,,0.00,weatherlink.com 1.10,2013-06-24 20:14:00,
2013-06-24 16:44:00,81.9,72.0,30.09,NE,36,0.0,0.0,73,0.00,,,0.00,weatherlink.com 1.10,2013-06-24 20:44:00,
2013-06-24 17:14:00,85.1,73.0,30.07,NE,42,0.0,2.0,68,0.00,,,0.00,weatherlink.com 1.10,2013-06-24 21:14:00,
2013-06-24 17:59:00,81.9,71.0,30.07,South,173,3.0,5.0,69,0.00,,,0.00,weatherlink.com 1.10,2013-06-24 21:59:00,
2013-06-24 18:14:00,80.2,70.0,30.07,South,190,2.0,6.0,71,0.00,,,0.00,weatherlink.com 1.10,2013-06-24 22:14:00,
2013-06-24 18:29:00,79.1,71.0,30.07,South,185,0.0,4.0,75,0.00,,,0.00,weatherlink.com 1.10,2013-06-24 22:29:00,
2013-06-24 18:59:00,79.1,71.0,30.07,South,186,1.0,4.0,76,0.00,,,0.00,weatherlink.com 1.10,2013-06-24 22:59:00,
2013-06-24 19:14:00,79.5,71.0,30.08,SW,221,1.0,4.0,75,0.00,,,0.00,weatherlink.com 1.10,2013-06-24 23:14:00,
2013-06-24 19:29:00,79.3,72.0,30.08,SW,228,0.0,0.0,77,0.00,,,0.00,weatherlink.com 1.10,2013-06-24 23:29:00,
2013-06-24 19:44:00,78.5,70.0,30.09,SW,228,0.0,1.0,76,0.00,,,0.00,weatherlink.com 1.10,2013-06-24 23:44:00,
2013-06-24 19:59:00,77.9,71.0,30.09,SSW,198,0.0,3.0,78,0.00,,,0.00,weatherlink.com 1.10,2013-06-24 23:59:00,
2013-06-24 20:14:00,77.2,71.0,30.09,SSE,153,0.0,0.0,81,0.00,,,0.00,weatherlink.com 1.10,2013-06-25 00:14:00,
2013-06-24 20:59:00,75.1,70.0,30.08,SSW,192,0.0,1.0,85,0.00,,,0.00,weatherlink.com 1.10,2013-06-25 00:59:00,
2013-06-24 21:14:00,74.4,70.0,30.08,SSW,192,0.0,0.0,86,0.00,,,0.00,weatherlink.com 1.10,2013-06-25 01:14:00,
2013-06-24 21:44:00,73.6,70.0,30.09,SSW,192,0.0,4.0,89,0.00,,,0.00,weatherlink.com 1.10,2013-06-25 01:44:00,
2013-06-24 21:59:00,73.1,70.0,30.09,WSW,253,0.0,2.0,89,0.00,,,0.00,weatherlink.com 1.10,2013-06-25 01:59:00,
2013-06-24 22:14:00,72.8,70.0,30.10,SW,218,0.0,0.0,90,0.00,,,0.00,weatherlink.com 1.10,2013-06-25 02:14:00,
2013-06-24 22:29:00,72.4,69.0,30.11,SW,218,0.0,0.0,90,0.00,,,0.00,weatherlink.com 1.10,2013-06-25 02:29:00,
2013-06-24 22:59:00,71.5,69.0,30.11,SW,218,0.0,0.0,92,0.00,,,0.00,weatherlink.com 1.10,2013-06-25 02:59:00,
2013-06-24 23:14:00,71.1,69.0,30.11,SW,218,0.0,0.0,92,0.00,,,0.00,weatherlink.com 1.10,2013-06-25 03:14:00,
2013-06-24 23:44:00,70.2,69.0,30.11,SW,218,0.0,0.0,94,0.00,,,0.00,weatherlink.com 1.10,2013-06-25 03:44:00,
2013-06-24 23:59:00,69.9,68.0,30.11,SW,218,0.0,0.0,94,0.00,,,0.00,weatherlink.com 1.10,2013-06-25 03:59:00,